This is the latest recevied weather packets stored in our database for station/object EA1GGY-1. If no packets are shown the sender has not sent any weather packets the latest 10 day(s).
| Time | Temp. | Humidity | Pressure | Rain* | Wind** | Luminosity | Snow |
|---|---|---|---|---|---|---|---|
| 1777600698 | 9.44° C | 73% | 1014.1 hPa | - | - | - | - |
| 1777587006 | 11.67° C | 74% | 1014.1 hPa | - | - | - | - |
| 1777583401 | 12.22° C | 74% | 1013.8 hPa | - | - | - | - |
| 1777581600 | 13.33° C | 67% | 1013.6 hPa | - | - | - | - |
| 1777580997 | 12.78° C | 72% | 1013.6 hPa | - | - | - | - |
| 1777580396 | 13.33° C | 69% | 1013.5 hPa | - | - | - | - |
| 1777579795 | 13.33° C | 67% | 1013.4 hPa | - | - | - | - |
| 1777578594 | 13.89° C | 67% | 1013.2 hPa | - | - | - | - |
| 1777577392 | 13.89° C | 67% | 1013.1 hPa | - | - | - | - |
| 1777576791 | 13.89° C | 65% | 1013 hPa | - | - | - | - |
| 1777575590 | 13.89° C | 66% | 1012.8 hPa | - | - | - | - |
| 1777571985 | 15° C | 65% | 1012.5 hPa | - | - | - | - |
| 1777568981 | 15° C | 62% | 1012.5 hPa | - | - | - | - |
| 1777567780 | 15° C | 62% | 1012.3 hPa | - | - | - | - |
| 1777566579 | 15° C | 61% | 1012.2 hPa | - | - | - | - |
| 1777565977 | 15.56° C | 61% | 1012.2 hPa | - | - | - | - |
| 1777565375 | 15.56° C | 60% | 1012.2 hPa | - | - | - | - |
| 1777564776 | 15° C | 61% | 1012.2 hPa | - | - | - | - |
| 1777563574 | 15° C | 61% | 1012.2 hPa | - | - | - | - |
| 1777562373 | 15.56° C | 60% | 1012.2 hPa | - | - | - | - |
| 1777561772 | 15° C | 61% | 1012.2 hPa | - | - | - | - |
| 1777561170 | 15° C | 61% | 1012.2 hPa | - | - | - | - |
| 1777559368 | 15° C | 60% | 1012.1 hPa | - | - | - | - |
| 1777558767 | 15° C | 62% | 1012.1 hPa | - | - | - | - |
| 1777558166 | 15° C | 60% | 1012.1 hPa | - | - | - | - |
* Rain since midnight (hover to see other rain measurements)
** Current wind speed in m/s (hover to see current wind gust speed)